Regional Weather Roundup
Issued by NWS

Home | Current Version | Previous Version | Text Only | Print | Product List | Glossary On
Versions: 1 2 3 4 5 6 7 8 9 10 11 12 13 14 15 16 17 18 19 20 21 22 23 24 25 26 27 28 29 30 31 32 33 34 35 36 37 38 39 40 41 42 43 44 45 46 47 48 49 50
000
ASUS43 KBIS 200720
RWRND

NORTH DAKOTA REGIONAL WEATHER ROUNDUP
NATIONAL WEATHER SERVICE BISMARCK ND
200 AM CDT WED AUG 20 2014

NOTE: "FAIR" INDICATES FEW OR NO CLOUDS BELOW 12,000 FEET WITH NO
SIGNIFICANT WEATHER AND/OR OBSTRUCTIONS TO VISIBILITY.


NDZ001>003-009>011-017-200800-
NORTHWEST NORTH DAKOTA

CITY           SKY/WX    TMP DP  RH WIND       PRES   REMARKS
WILLISTON      MOCLDY    73  60  63 S6        29.64S
MINOT          CLEAR     65  60  84 E6        29.69S
MINOT AFB      CLEAR     62  62  99 SE6       29.68F
$$

NDZ018>021-031>035-040>046-200800-
SOUTHWEST NORTH DAKOTA

CITY           SKY/WX    TMP DP  RH WIND       PRES   REMARKS
BISMARCK       PTCLDY    69  61  75 SE7       29.72F
DICKINSON      PTCLDY    64  57  78 S7        29.68F
GARRISON         N/A     68  63  84 SE8       29.70F
HETTINGER ARPT CLEAR     67  58  72 SE7       29.72F
$$

NDZ004>008-012>016-024-026-027-054-200800-
NORTHEAST NORTH DAKOTA

CITY           SKY/WX    TMP DP  RH WIND       PRES   REMARKS
GRAND FORKS    CLEAR     66  62  87 SE5       29.76S
GRND FRKS AFB  CLEAR     64  64  99 S6        29.77S
DEVILS LAKE    CLEAR     70  63  78 SE9       29.74S
$$

NDZ022-023-025-028>030-036>039-047>053-200800-
SOUTHEAST NORTH DAKOTA

CITY           SKY/WX    TMP DP  RH WIND       PRES   REMARKS
FARGO          CLEAR     67  62  84 SE6       29.77R
JAMESTOWN      PTCLDY    66  63  90 SE7       29.76F
$$



USA.gov is the U.S. government's official web portal to all federal, state and local government web resources and services.